Regional Weather Roundup
Issued by NWS Sioux Falls, SD

Home | Current Version | Previous Version | Graphics & Text | Print | Product List | Glossary On
Versions: 1 2 3 4 5 6 7 8 9 10 11 12 13 14 15 16 17 18 19 20 21 22 23 24 25 26 27 28 29 30 31 32 33 34 35 36 37 38 39 40 41 42 43 44 45 46 47 48 49 50
000
ASUS43 KFSD 031610
RWRFSD

WEATHER ROUNDUP FOR SE SOUTH DAKOTA/SW MINNESOTA/NW IOWA
NATIONAL WEATHER SERVICE SIOUX FALLS SD
1100 AM CDT MON AUG 03 2015

NOTE: "FAIR" INDICATES FEW OR NO CLOUDS BELOW 12,000 FEET WITH NO
SIGNIFICANT WEATHER AND OR OBSTRUCTIONS TO VISIBILITY.


SDZ038>040-050-052>070-031700-
SOUTHEAST SOUTH DAKOTA

CITY           SKY/WX    TMP DP  RH WIND       PRES   REMARKS
BROOKINGS      SUNNY     72  55  56 NW7       30.02S
CHAMBERLAIN    SUNNY     73  60  64 S3        30.02S
HURON          SUNNY     75  61  61 CALM      29.99F
MADISON        FAIR      73  55  53 W8        30.02S
MITCHELL       SUNNY     75  60  59 SW3       30.00F
SIOUX FALLS    MOSUNNY   74  55  51 SW5       30.00S
WINNER         FAIR      78  58  49 E5        30.03R
YANKTON        SUNNY     73  63  68 CALM      29.99R
$$

MNZ071-072-080-081-089-090-097-098-031700-
SOUTHWEST MINNESOTA

CITY           SKY/WX    TMP DP  RH WIND       PRES   REMARKS
FAIRMONT       SUNNY     73  52  46 NW10      29.97S
JACKSON        SUNNY     73  54  49 W9        30.00S
LUVERNE        SUNNY     73  55  53 W5        30.01S
MARSHALL       SUNNY     73  52  46 W8        30.00S
MONTEVIDEO     SUNNY     75  61  60 N6        29.98S
PIPESTONE      SUNNY     72  55  56 NW6       30.01S
REDWOOD FALLS  SUNNY     75  53  46 NW8       29.96R
TRACY          SUNNY     72  55  56 NW7       29.99S
WINDOM         SUNNY     73  55  53 W7        29.99R
WORTHINGTON    SUNNY     72  54  53 W8        30.01S
$$

IAZ001>003-012>014-020>022-031-032-NEZ013-014-SDZ071-031700-
NORTHWEST IOWA

CITY           SKY/WX    TMP DP  RH WIND       PRES   REMARKS
CHEROKEE       SUNNY     74  55  50 CALM      30.00S
DENISON        MOSUNNY   75  57  53 CALM      29.99S
ESTHERVILLE    SUNNY     74  52  46 W8        29.99R
LE MARS        SUNNY     75  55  50 CALM      30.01S
ORANGE CITY    SUNNY     72  55  56 CALM      30.01R
SHELDON        SUNNY     73  55  53 W5        30.00S
SIOUX CITY     NOT AVBL
SPENCER        SUNNY     76  52  43 W7        30.00S
STORM LAKE     SUNNY     73  55  53 CALM      30.02R
$$

ABBREVIATIONS USED IN REMARKS
   TC - TEMPERATURE IN CELSIUS
  WCI - WIND CHILL INDEX
   HX - HEAT INDEX
  VSB - VISIBILITY



USA.gov is the U.S. government's official web portal to all federal, state and local government web resources and services.